www.pogodaiklimat.ru

АРХИВ ПОГОДЫ в Бангоре

Время (UTC), дата Ветер
(напр.,м/с)
 
Видим.   Явления Облачность Т
(С)
Тd
(С)
f
(%)
Тe
(С)
Тes
(С)
Комфортность

P
(гПа)

Po
(гПа)
Тmin
(С)
Tmax
(С)
R
(мм)
SD
(см)
10:53 16.12 штиль  14 км    10/10 1650 м  -10.0  -11.7  87  -10  -10    1008.6  1001.1         
11:53 16.12 штиль  10 км  слабый снег, дымка  10/10 1320 м  -10.0  -11.7  87  -10  -10    1009.0  1001.4  -10.0  -8.3     
12:53 16.12 штиль  16 км    5/5 1200 м  -11.0  -12.0  92  -11  -11    1009.2  1001.8         
13:53 16.12 З  16 км    5/5 1500 м
[средняя] 
-8.9  -12.2  77  -14  -14    1010.0  1002.4         
14:53 16.12 З   16 км    5/5 1500 м
[средняя] 
-8.0  -12.0  73  -14  -13    1010.4  1002.8         
15:53 16.12 З  16 км    2/2 1500 м
[средняя] 
-6.1  -11.1  68  -13  -11    1010.1  1002.8         
16:53 16.12 З  16 км    8/8 1650 м
[средняя] 
-5.6  -10.6  68  -12  -12    1009.6  1002.1         
17:53 16.12 З  16 км    8/8 1650 м  -5.0  -11.0  63  -12  -11    1009.6  1002.1  -11.7  -5.0    15 
18:53 16.12 СЗ  16 км    10/8 900 м
[средняя] 
-5.0  -10.0  68  -10  -10    1009.8  1002.4         
19:53 16.12 СЗ  16 км    8/5 900 м
[средняя] 
-6.0  -9.0  79  -11  -11    1010.7  1003.1         
20:53 16.12 З  16 км    10/5 900 м
[средняя] 
-5.6  -9.4  75  -9  -9      1004.1         
21:53 16.12 З  16 км    8/8 1500 м
[средняя] 
-6.0  -9.0  79  -12  -12    1012.8  1005.1         
22:53 16.12 СЗ  16 км    8/8 1200 м  -6.7  -9.4  81  -12  -12    1013.9  1006.5         
23:53 16.12 З  16 км    2/2 1500 м  -7.0  -10.0  79  -11  -11    1014.9  1007.5  -7.2      15 
00:53 17.12 С  16 км    ясно  -8.3  -10.0  88  -14  -14    1015.7  1008.2         
01:53 17.12 З   16 км    ясно  -8.9  -10.6  87  -15  -15    1016.4  1008.8         
02:53 17.12 З  16 км    ясно  -8.9  -11.1  84  -14  -14    1017.4  1009.8         
03:53 17.12 СЗ  16 км    ясно  -9.4  -12.2  80  -15  -15    1018.5  1010.8         
04:53 17.12 СЗ  16 км    ясно  -9.4  -12.2  80  -17  -17    1018.9  1011.2         
05:53 17.12 З  16 км    ясно  -10.0  -13.3  77  -17  -17    1019.4  1011.9        15 
06:53 17.12 СЗ  16 км    ясно  -10.6  -13.9  77  -17  -17    1020.6  1013.2         
07:53 17.12 штиль  16 км    ясно  -11.1  -15.0  73  -11  -11    1020.6  1012.9         
08:53 17.12 СЗ  16 км    ясно  -11.7  -15.0  76  -17  -17    1021.3  1013.9         
09:53 17.12 З   16 км    ясно  -15.0  -16.1  91  -19  -19    1021.4  1013.9         
10:53 17.12 Ю  16 км    ясно  -14.4  -16.7  83  -20  -20    1022.0  1014.5         
11:53 17.12 штиль  16 км    2/0 4200 м
[средняя] 
-16.0  -18.0  85  -16  -16    1022.6  1014.9  -16.1      15 
12:53 17.12 штиль  16 км    ясно  -15.6  -17.2  87  -16  -16    1022.9  1015.2         
13:53 17.12 штиль  16 км    ясно  -12.2  -15.0  80  -12  -12    1022.6  1015.2         
14:53 17.12 З   16 км    ясно  -8.9  -14.4  64  -16  -15    1023.0  1015.6         
15:53 17.12 СЗ  16 км    ясно  -8.3  -14.4  61  -15  -13    1022.5  1014.9         
16:53 17.12 З  16 км    2/2 1200 м  -7.2  -13.9  59  -13  -12    1022.4  1014.9         
17:53 17.12 СЗ  16 км    2/2 1200 м  -7.0  -14.0  57  -13  -12    1022.0  1014.5  -17.2  -6.7    15 
18:53 17.12 СЗ  16 км    2/2 1200 м  -7.2  -14.4  56  -16  -15    1021.7  1014.2         
19:53 17.12 З  16 км    2/2 1200 м  -7.2  -15.0  54  -14  -13    1022.3  1014.5         
20:53 17.12 СЗ  16 км    2/2 1200 м
[верхняя] 
-8.0  -15.0  57  -15  -15    1022.5  1014.9         
21:53 17.12 СЗ  16 км    2/0 7500 м
[верхняя] 
-9.4  -15.6  61  -16  -16    1023.4  1015.6         
22:53 17.12 СЗ  16 км    2/0 7500 м
[верхняя] 
-11.1  -16.7  63  -17  -17    1024.2  1016.6         
23:53 17.12 СЗ  16 км    ясно  -11.7  -17.8  61  -18  -18    1024.4  1016.6        15 
00:53 18.12 СЗ  16 км    ясно  -13.3  -18.3  66  -19  -19    1024.2  1016.2         
01:53 18.12 З   16 км    ясно  -12.8  -17.8  66  -18  -18    1024.6  1016.9         
02:53 18.12 З  16 км    2/0 7500 м
[верхняя] 
-13.3  -18.3  66  -19  -19    1025.4  1017.6         
03:53 18.12 штиль  16 км    2/0 7500 м
[верхняя] 
-15.6  -18.3  80  -16  -16    1024.7  1016.9         
04:53 18.12 штиль  16 км    2/0 7500 м
[верхняя] 
-16.0  -19.0  78  -16  -16    1024.5  1016.9         
05:53 18.12 штиль  16 км    ясно  -16.1  -17.8  87  -16  -16    1024.2  1016.6        15 
06:53 18.12 штиль  16 км    2/0 7500 м
[верхняя] 
-17.8  -20.0  83  -18  -18    1024.7  1016.9         
07:53 18.12 штиль  16 км    5/0 7500 м
[верхняя] 
-15.6  -18.9  76  -16  -16    1024.3  1016.6         
08:53 18.12 штиль  16 км    2/0 7500 м
[верхняя] 
-17.2  -19.4  83  -17  -17    1024.2  1016.6         
09:53 18.12 штиль  16 км    2/0 7500 м
[верхняя] 
-16.7  -18.9  83  -17  -17    1023.4  1015.6         

 

Местоположение метеостанции Bangor International Airport: широта 44.7972 долгота -68.8186 высота над уровнем моря 58 м.

В архиве по умолчанию представлена погода в Бангоре за последние 1-2 суток. Обновление информации о фактической погоде в базе происходит ежечасно! Архивные данные за месяц целиком и за предыдущие месяцы Вы можете получить, выбрав интересующий диапазон дат из раскрывающегося списка и нажав кнопку "Ввод!".

Внимание! Архив погоды МЕТАР в базе сайта в настоящее время начинается c 1 января 2013 г. Нет смысла пытаться выбрать более раннюю дату.

Внимание! Время в таблицах - всемирное. Для получения местного времени необходимо прибавить поправку, которая в Бангоре равна -5 ч.

Ветер - указаны скорость ветра в м/с и направление, откуда дует ветер: С - северный, СВ - северо-восточный, В - восточный, ЮВ - юго-восточный, Ю - южный, ЮЗ - юго-западный, З - западный, СЗ - северо-западный.
Видимость - горизонтальная дальность видимости в метрах или километрах. При видимости от 1 до 10 км при отсутствии осадков обычно наблюдается дымка, при ухудшении видимости до 1 км и менее - туман. В сухую погоду видимость может ухудшаться дымом, пылью или мглою.
Атмосферные явления - указаны явления, наблюдавшиеся в указанный момент времени.
Облачность - указаны через наклонную черту верхняя и нижняя облачность в баллах и высота нижней границы облаков в метрах. Внимание: облачность, как и прочие метеорологические величины в США измеряются автоматическими метеостанциями. Указанные значения в баллах носят условный характер и показывают процент времени, в течение которого, в среднем, лазерный луч высотомера отражался от облаков обратно.
T - Температура воздуха - температура, измеренная на высоте 2 м над землей.
Td - Температура точки росы - температура, при понижении до которой содержащийся в воздухе водяной пар достигнет насыщения.
f - Относительная влажность воздуха - влажноcть воздуха, измеренная на высоте 2 м над землей.
Te - Эффективная температура - температура, которую ощущает одетый по сезону человек в тени. Характеристика душности погоды. При расчете учитывается влияние влажности воздуха и скорости ветра на теплоощущения человека.
Tes - Эффективная температура на солнце - температура, которую ощущает человек, с поправкой на солнечный нагрев. Характеристика знойности погоды. Зависит от высоты солнца над горизонтом, облачности и скорости ветра. Ночью, в пасмурную погоду, а также при ветре 12 м/с и более поправка равна нулю.
P - Атмосферное давление - приведенное к уровню моря атмосферное давление.
Po - Атмосферное давление - измеренное на уровне метеостанции атмосферное давление.
Tmin - Минимальная температура - минимум температуры воздуха на высоте 2 м над землей.
Tmax - Максимальная температура - максимум температуры воздуха на высоте 2 м над землей.
R - Количество осадков - Количество выпавших осадков за 3 или 6 часов, мм.
SD - Снежный покров - Высота снежного покрова, см.